Hourly Data Report for July 16, 2021

PRINCE RUPERT
BRITISH COLUMBIA
Current Station Operator: NAVCAN

54°17'10.000" N
130°26'41.000" W
35.40 m
1066482
71022
YPR

Download Data

Hourly Data (July 2021)
Hourly Data Report for July 16, 2021
TIME
LST
Temp Definition
°C
Dew Point Definition
°C
Rel Hum Definition
%
Precip. Amount Definition
mm

Wind Dir Definition
10's deg

Wind Spd Definition
km/h
Visibility Definition
km
Stn Press Definition
kPa
Hmdx Definition


Wind Chill Definition


Weather Definition


00:00 13.6 12.2 91 0.5 14 15 9.7 100.83     Rain, Fog
01:00 13.1 12.0 93 0.2 15 9 4.8 100.84     Rain, Fog
02:00 12.4 11.8 96 1.2 LegendMM 8 3.2 100.84     Rain, Fog
03:00 12.1 11.6 97 0.8 15 8 4.0 100.82     Rain, Fog
04:00 12.0 11.5 97 0.8 16 8 16.1 100.81     LegendNANA
05:00 12.1 11.5 96 0.0 12 5 16.1 100.81     LegendNANA
06:00 12.4 11.3 93 0.0 11 9 16.1 100.81     LegendNANA
07:00 12.9 12.0 94 0.0 10 5 16.1 100.83     LegendNANA
08:00 13.5 11.9 90 0.0 14 9 16.1 100.83     LegendNANA
09:00 13.7 11.9 89 0.0 18 9 16.1 100.85     LegendNANA
10:00 13.1 11.1 88 0.0 18 5 16.1 100.87     LegendNANA
11:00 13.1 10.7 85 0.0 18 5 16.1 100.88     LegendNANA
12:00 14.1 10.9 81 0.0 14 8 16.1 100.90     LegendNANA
13:00 14.1 10.9 81 0.0 LegendMM 4 16.1 100.92     LegendNANA
14:00 13.3 10.8 85 0.0 LegendMM 4 16.1 100.94     Rain
15:00 13.3 11.0 86 0.0 LegendMM 4 16.1 100.95     Rain
16:00 15.0 11.5 79 0.0 1 5 16.1 100.92     LegendNANA
17:00 14.3 11.0 81 0.0 22 5 16.1 100.91     LegendNANA
18:00 14.0 10.8 81 0.0 34 13 16.1 100.89     LegendNANA
19:00 14.2 11.4 83 0.0 2 8 16.1 100.90     LegendNANA
20:00 13.7 11.3 85 0.0 7 8 16.1 100.88     LegendNANA
21:00 13.1 11.3 89 0.0 1 5 16.1 100.88     LegendNANA
22:00 12.5 11.6 94 0.8 5 5 16.1 100.89     Rain
23:00 12.2 11.5 96 0.0 7 8 16.1 100.89     Rain

Notes on Data Quality.

Legend

  • E = Estimated
  • M = Missing
  • NA = Not Available*
  • [empty] = Indicates an unobserved value
Date modified: